Weather History for Blair, NE

Change the Weather History Date:

Friday, February 17, 2012

  Actual Average (KOMA) Record (KOMA)
Temperature  
Mean Temperature 34 °F 29 °F  
Max Temperature 40 °F 39 °F 69 °F (1981)
Min Temperature 29 °F 19 °F -15 °F (1958)
Degree Days  
Heating Degree Days 30 36  
Month to date heating degree days 656  
Since 1 July heating degree days 4421  
Cooling Degree Days 0 0  
Month to date cooling degree days 0  
Year to date cooling degree days 0  
Moisture  
Dew Point 26 °F    
Average Humidity 70    
Maximum Humidity 82    
Minimum Humidity 54    
Precipitation  
Precipitation 0.00 in 0.03 in 0.67 in (1871)
Month to date precipitation 0.47  
Year to date precipitation 1.19  
Snow  
Snow 0.00 in 0.20 in - ()
Month to date snowfall 3.9  
Since 1 July snowfall 19.0  
Snow Depth -    
Sea Level Pressure  
Sea Level Pressure 30.08 in    
Wind  
Wind Speed 10 mph (WNW)    
Max Wind Speed 20 mph    
Max Gust Speed 24 mph    
Visibility 10 miles    
Events      
T = Trace of Precipitation, MM = Missing Value Source: NWS Daily Summary

Daily Weather History Graph

Daily Weather History Graph

Search for Another Location

Airport:

Trip Planner

Search our weather history database for the weather conditions in past years. The results will help you decide how hot, cold, wet, or windy it might be!

Date:

Astronomy

Feb. 17, 2012 Rise Set
Actual Time 7:17 AM CST 6:00 PM CST
Civil Twilight 6:49 AM CST 6:28 PM CST
Nautical Twilight 6:16 AM CST 7:00 PM CST
Astronomical Twilight 5:44 AM CST 7:32 PM CST
Moon 4:11 AM CST (2/17) 1:52 PM CST (2/17)
Length of Visible Light 11h 39m
Length of Day
10h 42m
Waning Crescent, 19% of the Moon is Illuminated
Feb 17
Waning Crescent
Feb 21
New
Feb 29
First Quarter
Mar 8
Full
Mar 14
Last Quarter

Hourly Weather History & Observations

Time (CST) Temp. Windchill Dew Point Humidity Pressure Visibility Wind Dir Wind Speed Gust Speed Precip Events Conditions
12:15 AM 33.8 °F 25.8 °F 26.6 °F 75% 30.07 in 10.0 mi South 10.4 mph - N/A   Scattered Clouds
12:35 AM 34.0 °F 25.5 °F 26.6 °F 74% 30.06 in 10.0 mi South 11.5 mph - N/A   Clear
12:55 AM 33.8 °F 25.8 °F 26.2 °F 74% 30.06 in 10.0 mi South 10.4 mph - N/A   Scattered Clouds
1:15 AM 34.5 °F 26.2 °F 26.6 °F 73% 30.05 in 10.0 mi South 11.5 mph - N/A   Mostly Cloudy
1:55 AM 34.7 °F 26.4 °F 26.6 °F 72% 30.04 in 10.0 mi South 11.5 mph - N/A   Scattered Clouds
2:15 AM 35.8 °F 26.5 °F 27.1 °F 71% 30.03 in 10.0 mi South 15.0 mph - N/A   Clear
2:35 AM 36.3 °F 26.4 °F 27.3 °F 70% 30.02 in 10.0 mi South 17.3 mph - N/A   Clear
2:55 AM 36.1 °F 25.5 °F 27.5 °F 71% 30.01 in 10.0 mi South 19.6 mph - N/A   Clear
3:15 AM 36.5 °F 26.3 °F 27.5 °F 70% 30.01 in 10.0 mi South 18.4 mph 24.2 mph N/A   Clear
3:35 AM 36.0 °F 26.7 °F 27.3 °F 71% 30.01 in 10.0 mi SSW 15.0 mph 19.6 mph N/A   Clear
3:55 AM 35.6 °F 26.6 °F 27.3 °F 72% 30.00 in 10.0 mi SSW 13.8 mph - N/A   Clear
4:15 AM 35.1 °F 26.4 °F 27.0 °F 72% 29.99 in 10.0 mi SSW 12.7 mph - N/A   Clear
4:35 AM 34.0 °F 26.6 °F 26.8 °F 75% 29.99 in 10.0 mi SSW 9.2 mph - N/A   Clear
4:55 AM 33.3 °F 25.1 °F 26.6 °F 77% 30.00 in 10.0 mi SSW 10.4 mph - N/A   Clear
5:15 AM 32.9 °F 25.3 °F 26.4 °F 77% 30.00 in 10.0 mi SSW 9.2 mph - N/A   Clear
5:35 AM 32.9 °F 24.7 °F 26.2 °F 76% 30.01 in 10.0 mi SSW 10.4 mph - N/A   Clear
5:55 AM 32.2 °F 24.4 °F 26.2 °F 79% 30.01 in 10.0 mi SW 9.2 mph - N/A   Clear
6:15 AM 32.0 °F 24.2 °F 26.1 °F 79% 30.01 in 10.0 mi SW 9.2 mph - N/A   Clear
6:35 AM 30.0 °F 20.0 °F 24.6 °F 80% 30.01 in 10.0 mi WSW 12.7 mph - N/A   Clear
6:55 AM 31.6 °F 26.0 °F 25.7 °F 79% 30.02 in 10.0 mi West 5.8 mph - N/A   Clear
7:15 AM 31.1 °F 27.7 °F 25.3 °F 79% 30.03 in 10.0 mi SW 3.5 mph - N/A   Clear
7:35 AM 29.3 °F - 24.4 °F 82% 30.03 in 10.0 mi Calm Calm - N/A   Clear
7:55 AM 30.2 °F 26.7 °F 25.0 °F 81% 30.04 in 10.0 mi West 3.5 mph - N/A   Clear
8:15 AM 30.2 °F 26.7 °F 24.3 °F 79% 30.05 in 10.0 mi WSW 3.5 mph - N/A   Clear
8:35 AM 31.3 °F 26.6 °F 24.6 °F 76% 30.06 in 10.0 mi SW 4.6 mph - N/A   Clear
8:55 AM 30.9 °F 27.5 °F 25.2 °F 79% 30.07 in 10.0 mi WSW 3.5 mph - N/A   Clear
9:15 AM 32.0 °F 28.7 °F 25.5 °F 77% 30.08 in 10.0 mi West 3.5 mph - N/A   Clear
9:35 AM 32.4 °F 29.1 °F 25.5 °F 76% 30.08 in 10.0 mi WNW 3.5 mph - N/A   Clear
9:55 AM 33.3 °F 28.9 °F 25.7 °F 74% 30.08 in 10.0 mi WNW 4.6 mph - N/A   Clear
10:15 AM 33.8 °F 29.6 °F 25.7 °F 72% 30.09 in 10.0 mi NW 4.6 mph - N/A   Clear
10:35 AM 34.0 °F 31.0 °F 25.9 °F 72% 30.10 in 10.0 mi West 3.5 mph - N/A   Clear
10:55 AM 35.1 °F 31.0 °F 26.4 °F 71% 30.10 in 10.0 mi WNW 4.6 mph - N/A   Clear
11:15 AM 36.1 °F 32.3 °F 26.6 °F 68% 30.10 in 10.0 mi West 4.6 mph - N/A   Clear
11:35 AM 36.9 °F 34.3 °F 27.0 °F 67% 30.10 in 10.0 mi NW 3.5 mph - N/A   Clear
11:55 AM 38.1 °F 32.9 °F 27.1 °F 65% 30.10 in 10.0 mi North 6.9 mph - N/A   Clear
12:15 PM 40.3 °F 34.4 °F 24.8 °F 54% 30.10 in 10.0 mi NNW 9.2 mph - N/A   Clear
12:35 PM 39.4 °F 32.3 °F 24.1 °F 54% 30.10 in 10.0 mi North 11.5 mph - N/A   Clear
12:55 PM 39.0 °F 31.0 °F 25.2 °F 58% 30.10 in 10.0 mi NNW 13.8 mph - N/A   Clear
1:15 PM 38.3 °F 30.1 °F 25.9 °F 61% 30.09 in 10.0 mi NNW 13.8 mph 18.4 mph N/A   Clear
1:35 PM 38.7 °F 29.5 °F 25.2 °F 58% 30.09 in 10.0 mi North 17.3 mph 21.9 mph N/A   Clear
1:55 PM 38.3 °F 30.5 °F 25.9 °F 61% 30.09 in 10.0 mi North 12.7 mph 20.7 mph N/A   Clear
2:15 PM 38.8 °F 32.6 °F 26.8 °F 62% 30.10 in 10.0 mi NNW 9.2 mph - N/A   Clear
2:35 PM 39.4 °F 33.2 °F 27.0 °F 61% 30.11 in 10.0 mi NNW 9.2 mph - N/A   Clear
3:15 PM 39.4 °F 32.3 °F 26.2 °F 59% 30.12 in 10.0 mi NNW 11.5 mph - N/A   Clear
3:35 PM 38.3 °F 30.9 °F 25.7 °F 61% 30.13 in 10.0 mi North 11.5 mph - N/A   Clear
3:55 PM 38.5 °F 32.1 °F 25.3 °F 59% 30.14 in 10.0 mi NNW 9.2 mph - N/A   Clear
4:15 PM 38.3 °F 31.9 °F 25.7 °F 61% 30.14 in 10.0 mi NNW 9.2 mph - N/A   Clear
4:35 PM 38.3 °F 32.5 °F 26.2 °F 62% 30.15 in 10.0 mi NNW 8.1 mph - N/A   Clear
4:55 PM 38.3 °F 33.2 °F 25.9 °F 61% 30.15 in 10.0 mi NNW 6.9 mph - N/A   Clear
5:15 PM 37.8 °F 31.3 °F 26.1 °F 63% 30.14 in 10.0 mi NNW 9.2 mph - N/A   Clear
5:35 PM 36.9 °F 30.1 °F 26.6 °F 66% 30.15 in 10.0 mi NNW 9.2 mph - N/A   Clear
5:55 PM 36.0 °F 30.3 °F 26.2 °F 68% 30.16 in 10.0 mi NNW 6.9 mph - N/A   Clear
6:15 PM 35.2 °F 28.8 °F 26.1 °F 69% 30.16 in 10.0 mi NNW 8.1 mph - N/A   Clear
6:35 PM 34.7 °F 28.1 °F 26.2 °F 71% 30.17 in 10.0 mi North 8.1 mph - N/A   Clear
6:55 PM 34.0 °F 28.8 °F 26.6 °F 74% 30.18 in 10.0 mi North 5.8 mph - N/A   Clear
7:15 PM 33.6 °F 27.5 °F 26.6 °F 75% 30.17 in 10.0 mi North 6.9 mph - N/A   Clear
7:35 PM 32.9 °F 25.3 °F 26.6 °F 78% 30.18 in 10.0 mi North 9.2 mph - N/A   Clear
7:55 PM 32.7 °F 27.3 °F 26.4 °F 78% 30.19 in 10.0 mi North 5.8 mph - N/A   Clear
8:15 PM 32.4 °F 26.0 °F 25.9 °F 77% 30.19 in 10.0 mi North 6.9 mph - N/A   Clear
8:35 PM 32.0 °F 24.8 °F 24.1 °F 73% 30.19 in 10.0 mi NNW 8.1 mph - N/A   Clear
8:55 PM 31.8 °F 23.9 °F 23.0 °F 70% 30.20 in 10.0 mi NNW 9.2 mph - N/A   Clear
9:15 PM 32.0 °F 23.6 °F 22.1 °F 67% 30.20 in 10.0 mi North 10.4 mph - N/A   Clear
9:35 PM 31.5 °F 22.3 °F 22.1 °F 68% 30.21 in 10.0 mi North 11.5 mph - N/A   Clear
9:55 PM 30.9 °F 24.3 °F 22.1 °F 70% 30.21 in 10.0 mi North 6.9 mph - N/A   Clear
10:15 PM 30.0 °F 23.2 °F 21.7 °F 71% 30.22 in 10.0 mi North 6.9 mph - N/A   Clear
10:35 PM 29.3 °F 24.3 °F 21.4 °F 72% 30.22 in 10.0 mi North 4.6 mph - N/A   Clear
10:55 PM 28.8 °F 22.6 °F 21.0 °F 73% 30.22 in 10.0 mi North 5.8 mph - N/A   Clear
11:15 PM 28.4 °F 20.4 °F 20.8 °F 73% 30.21 in 10.0 mi NNW 8.1 mph - N/A   Clear
11:35 PM 28.4 °F 21.2 °F 20.8 °F 73% 30.22 in 10.0 mi NNW 6.9 mph - N/A   Clear
11:55 PM 28.0 °F 20.8 °F 20.5 °F 73% 30.22 in 10.0 mi NNW 6.9 mph - N/A   Clear